Flag for Nicaragua Weather past 2 weeks in Managua, Nicaragua

Now
90 °F

Scattered clouds.


Feels Like: 95 °F
Forecast: 77 / 95 °F
Wind: 12 mph from East

Location: Managua A. C. Sandino

Current Time: Apr 18, 2015 at 10:31:12 AM

Latest Report: Apr 18, 2015 at 10:00 AM


Visibility: 6 mi

Pressure: 29.89 "Hg

Humidity: 52%

Dew point: 70 °F

Location of ManaguaLocation

Historic Weather in Managua — Graph

°F

Managua temperature yesterday

Maximum temperature yesterday: 97 °F (at 2:00 PM)
Minimum temperature yesterday: 75 °F (at 4:00 AM)
Average temperature yesterday: 86 °F

Past Weeks' High & Low Weather Summary

 TemperatureHumidityPressure
High99 °F (Apr 13, 2:00 PM)89% (Apr 18, 6:00 AM)29.95 "Hg (Apr 18, 6:00 AM)
Low73 °F (Apr 10, 4:00 AM)30% (Apr 9, 3:00 PM)29.71 "Hg (Apr 4, 4:00 PM)
Average86 °F58%29.83 "Hg
* Reported Apr 3 9:00 AM — Apr 18 9:00 AM, Managua, Weather by CustomWeather, © 2015

Note: Actual official high and low records may vary slightly from our data, if they occured in-between our weather recording intervals... More about our weather records

Advertising

Managua weather history for previous 24 hours

 ConditionsComfort  
Time TempWeatherWind HumidityBarometerVisibility
9:00 AM
Sat, Apr 18
86 °FScattered clouds.12 mph59%29.92 "Hg6 mi
8:00 AM84 °FPassing clouds.16 mph58%29.89 "Hg6 mi
7:00 AM81 °FPassing clouds.7 mph70%29.89 "Hg6 mi
6:00 AM75 °FPassing clouds.5 mph89%29.86 "Hg6 mi
5:00 AM77 °FPassing clouds.7 mph79%29.83 "HgN/A
12:00 AM82 °FPassing clouds.12 mph70%29.89 "HgN/A
11:00 PM
Fri, Apr 17
82 °FPassing clouds.12 mph70%29.89 "HgN/A
10:00 PM82 °FPassing clouds.12 mph70%29.89 "HgN/A
9:00 PM84 °FPassing clouds.14 mph66%29.86 "HgN/A
8:00 PM84 °FPassing clouds.16 mph66%29.83 "HgN/A
7:00 PM86 °FPassing clouds.14 mph62%29.80 "HgN/A
6:00 PM91 °FPassing clouds.14 mph49%29.80 "HgN/A
5:00 PM91 °FPassing clouds.12 mph49%29.77 "HgN/A
4:00 PM93 °FPassing clouds.16 mph44%29.77 "HgN/A
3:00 PM97 °FScattered clouds.16 mph39%29.77 "HgN/A
2:00 PM97 °FScattered clouds.18 mph37%29.80 "HgN/A
1:00 PM95 °FScattered clouds.14 mph41%29.83 "HgN/A
12:00 PM91 °FScattered clouds.14 mph44%29.86 "HgN/A
11:00 AM93 °FScattered clouds.23 mph44%29.89 "HgN/A
10:00 AM90 °FPassing clouds.14 mph52%29.89 "HgN/A
Weather by CustomWeather, © 2015

See weather overviewHow to use our weather pages